• In Uzbekistan
  • List of Countries
  • For 7 days
  • Water Temperature
  • Satellite Maps
  • Weather Map
  • Weather Widgets
  • user-avatar
    Login

    Hourly Weather Geseke

    Today, 17 January, Wednesday

    Time Temperature Precipitation Wind Pressure Humidity
    00:00 0°C° 0.1 mm 4 mps 734 mmHg 87%
    01:00 0°C° 0.1 mm 4 mps 734 mmHg 88%
    02:00 0°C° 0.3 mm 4 mps 734 mmHg 88%
    03:00 0°C° 0.3 mm 4 mps 734 mmHg 88%
    04:00 0°C° 0.3 mm 4 mps 733 mmHg 88%
    05:00 0°C° 0.4 mm 5 mps 734 mmHg 86%
    06:00 0°C° 0.4 mm 5 mps 734 mmHg 84%
    07:00 -1°C° 0.4 mm 6 mps 734 mmHg 82%
    08:00 -1°C° 0.2 mm 6 mps 735 mmHg 81%
    09:00 -1°C° 0.2 mm 6 mps 736 mmHg 80%
    10:00 -2°C° 0.2 mm 7 mps 736 mmHg 79%
    11:00 -1°C° 0.1 mm 7 mps 737 mmHg 77%
    12:00 -1°C° 0.1 mm 7 mps 737 mmHg 76%
    13:00 0°C° 0.1 mm 7 mps 738 mmHg 74%
    14:00 0°C° 0.4 mm 7 mps 738 mmHg 75%
    15:00 0°C° 0.4 mm 7 mps 739 mmHg 77%
    16:00 0°C° 0.4 mm 7 mps 740 mmHg 78%
    17:00 -1°C° 0.2 mm 7 mps 740 mmHg 77%
    18:00 -1°C° 0.2 mm 7 mps 741 mmHg 77%
    19:00 -1°C° 0.2 mm 7 mps 742 mmHg 76%
    20:00 -1°C° 0.1 mm 7 mps 743 mmHg 79%
    21:00 -1°C° 0.1 mm 6 mps 743 mmHg 81%
    22:00 -1°C° 0.1 mm 6 mps 744 mmHg 83%
    23:00 -1°C° 0.2 mm 6 mps 744 mmHg 84%

    Tomorrow, 18 January, Thursday

    Time Temperature Precipitation Wind Pressure Humidity
    00:00 -1°C° 0.2 mm 6 mps 745 mmHg 84%
    01:00 -1°C° 0.2 mm 6 mps 745 mmHg 84%
    02:00 -1°C° 0.1 mm 6 mps 745 mmHg 84%
    03:00 -1°C° 0.1 mm 6 mps 744 mmHg 84%
    04:00 -2°C° 0.1 mm 6 mps 744 mmHg 84%
    05:00 -1°C° 0.4 mm 6 mps 743 mmHg 85%
    06:00 -1°C° 0.4 mm 6 mps 741 mmHg 86%
    07:00 -1°C° 0.4 mm 6 mps 740 mmHg 87%
    08:00 +1°C° 0.6 mm 6 mps 738 mmHg 89%
    09:00 +3°C° 0.6 mm 7 mps 737 mmHg 91%
    10:00 +4°C° 0.6 mm 8 mps 735 mmHg 93%
    11:00 +5°C° 0.3 mm 8 mps 734 mmHg 90%
    12:00 +5°C° 0.3 mm 9 mps 734 mmHg 86%
    13:00 +6°C° 0.3 mm 9 mps 733 mmHg 83%
    14:00 +5°C° 0 mm 10 mps 733 mmHg 80%
    15:00 +3°C° 0 mm 10 mps 734 mmHg 76%
    16:00 +2°C° 0 mm 11 mps 734 mmHg 73%
    17:00 +1°C° 0 mm 9 mps 735 mmHg 76%
    18:00 +2°C° 0 mm 7 mps 736 mmHg 78%
    19:00 +1°C° 0 mm 5 mps 737 mmHg 81%
    20:00 +1°C° 0.2 mm 4 mps 737 mmHg 83%
    21:00 +1°C° 0.2 mm 3 mps 738 mmHg 86%
    22:00 +2°C° 0.2 mm 2 mps 738 mmHg 89%
    23:00 +1°C° 0.5 mm 3 mps 739 mmHg 89%

    Day after tomorrow, 19 January, Friday

    Time Temperature Precipitation Wind Pressure Humidity
    00:00 +1°C° 0.5 mm 3 mps 739 mmHg 90%
    01:00 +1°C° 0.5 mm 4 mps 739 mmHg 90%
    02:00 0°C° 0.2 mm 4 mps 740 mmHg 89%
    03:00 0°C° 0.2 mm 4 mps 740 mmHg 88%
    04:00 0°C° 0.2 mm 5 mps 741 mmHg 87%
    05:00 0°C° 0 mm 5 mps 742 mmHg 87%
    06:00 0°C° 0 mm 5 mps 742 mmHg 87%
    07:00 0°C° 0 mm 5 mps 743 mmHg 86%
    08:00 0°C° 0.1 mm 5 mps 743 mmHg 86%
    09:00 0°C° 0.1 mm 5 mps 744 mmHg 86%
    10:00 0°C° 0.1 mm 5 mps 744 mmHg 86%
    11:00 0°C° 0 mm 5 mps 744 mmHg 84%
    12:00 +1°C° 0 mm 5 mps 744 mmHg 81%
    13:00 +1°C° 0 mm 6 mps 744 mmHg 79%
    14:00 +1°C° 0.2 mm 5 mps 744 mmHg 79%
    15:00 +1°C° 0.2 mm 5 mps 744 mmHg 80%
    16:00 0°C° 0.2 mm 4 mps 744 mmHg 81%
    17:00 0°C° 0.2 mm 4 mps 744 mmHg 82%
    18:00 0°C° 0.2 mm 4 mps 745 mmHg 83%
    19:00 0°C° 0.2 mm 3 mps 745 mmHg 85%
    20:00 0°C° 0.1 mm 3 mps 745 mmHg 86%
    21:00 0°C° 0.1 mm 3 mps 745 mmHg 86%
    22:00 0°C° 0.1 mm 3 mps 745 mmHg 87%
    23:00 -1°C° 0 mm 3 mps 745 mmHg 88%

    20 January, Saturday

    Time Temperature Precipitation Wind Pressure Humidity
    00:00 -1°C° 0 mm 3 mps 745 mmHg 89%
    01:00 -1°C° 0 mm 3 mps 745 mmHg 90%
    02:00 -3°C° 0 mm 4 mps 745 mmHg 90%
    03:00 -3°C° 0 mm 4 mps 745 mmHg 90%
    04:00 -3°C° 0 mm 4 mps 745 mmHg 90%
    05:00 -3°C° 0 mm 4 mps 745 mmHg 90%
    06:00 -2°C° 0 mm 4 mps 745 mmHg 90%
    07:00 -2°C° 0 mm 4 mps 745 mmHg 91%
    08:00 -2°C° 0 mm 4 mps 745 mmHg 89%
    09:00 -1°C° 0 mm 5 mps 745 mmHg 88%
    10:00 -1°C° 0 mm 5 mps 745 mmHg 87%
    11:00 -1°C° 0 mm 5 mps 745 mmHg 85%
    12:00 0°C° 0 mm 5 mps 745 mmHg 84%
    13:00 0°C° 0 mm 5 mps 745 mmHg 83%
    14:00 0°C° 0.1 mm 5 mps 745 mmHg 84%
    15:00 0°C° 0.1 mm 4 mps 745 mmHg 84%
    16:00 0°C° 0.1 mm 4 mps 745 mmHg 85%
    17:00 -1°C° 0.1 mm 4 mps 745 mmHg 87%
    18:00 0°C° 0.1 mm 3 mps 746 mmHg 88%
    19:00 -1°C° 0.1 mm 3 mps 746 mmHg 90%
    20:00 -1°C° 0 mm 3 mps 747 mmHg 91%
    21:00 -1°C° 0 mm 3 mps 747 mmHg 91%
    22:00 -2°C° 0 mm 3 mps 748 mmHg 91%
    23:00 -2°C° 0 mm 3 mps 748 mmHg 92%

    21 January, Sunday

    Time Temperature Precipitation Wind Pressure Humidity
    00:00 -2°C° 0 mm 3 mps 748 mmHg 93%
    01:00 -2°C° 0 mm 3 mps 749 mmHg 93%
    02:00 -2°C° 0 mm 3 mps 749 mmHg 93%
    03:00 -2°C° 0 mm 3 mps 750 mmHg 93%
    04:00 -2°C° 0 mm 3 mps 750 mmHg 93%
    05:00 -1°C° 0 mm 3 mps 751 mmHg 93%
    06:00 -1°C° 0 mm 3 mps 751 mmHg 93%
    07:00 -1°C° 0 mm 3 mps 752 mmHg 93%
    08:00 -1°C° 0 mm 3 mps 752 mmHg 92%
    09:00 -1°C° 0 mm 3 mps 752 mmHg 91%
    10:00 -1°C° 0 mm 3 mps 753 mmHg 91%
    11:00 0°C° 0 mm 3 mps 753 mmHg 89%
    12:00 +1°C° 0 mm 3 mps 753 mmHg 88%
    13:00 +1°C° 0 mm 3 mps 753 mmHg 86%
    14:00 +1°C° 0 mm 3 mps 753 mmHg 87%
    15:00 +2°C° 0 mm 2 mps 753 mmHg 87%
    16:00 +2°C° 0 mm 2 mps 753 mmHg 88%
    17:00 +1°C° 0 mm 2 mps 752 mmHg 88%
    18:00 +1°C° 0 mm 2 mps 752 mmHg 89%
    19:00 -1°C° 0 mm 2 mps 752 mmHg 90%
    20:00 -1°C° 0 mm 3 mps 751 mmHg 89%
    21:00 0°C° 0 mm 3 mps 751 mmHg 88%
    22:00 -1°C° 0 mm 4 mps 750 mmHg 87%
    23:00 -1°C° 0.5 mm 4 mps 749 mmHg 88%

    22 January, Monday

    Time Temperature Precipitation Wind Pressure Humidity
    00:00 -1°C° 0.5 mm 4 mps 748 mmHg 88%
    01:00 -1°C° 0.5 mm 5 mps 747 mmHg 89%
    02:00 -1°C° 0.6 mm 4 mps 747 mmHg 90%
    03:00 0°C° 0.6 mm 4 mps 746 mmHg 91%
    04:00 0°C° 0.6 mm 4 mps 746 mmHg 92%
    05:00 +1°C° 0.4 mm 3 mps 746 mmHg 93%
    06:00 +1°C° 0.4 mm 3 mps 746 mmHg 95%
    07:00 +3°C° 0.4 mm 2 mps 746 mmHg 96%
    08:00 +2°C° 0.1 mm 3 mps 746 mmHg 97%
    09:00 +3°C° 0.1 mm 3 mps 747 mmHg 98%
    10:00 +3°C° 0.1 mm 3 mps 747 mmHg 98%
    11:00 +3°C° 0.1 mm 4 mps 748 mmHg 98%
    12:00 +4°C° 0.1 mm 4 mps 748 mmHg 98%
    13:00 +4°C° 0.1 mm 4 mps 749 mmHg 97%
    14:00 +4°C° 0.1 mm 4 mps 749 mmHg 97%
    15:00 +4°C° 0.1 mm 4 mps 750 mmHg 97%
    16:00 +3°C° 0.1 mm 4 mps 750 mmHg 96%
    17:00 +3°C° 0 mm 3 mps 751 mmHg 96%
    18:00 +3°C° 0 mm 3 mps 751 mmHg 96%
    19:00 +3°C° 0 mm 3 mps 751 mmHg 97%
    20:00 +2°C° 0 mm 3 mps 752 mmHg 97%
    21:00 +3°C° 0 mm 2 mps 752 mmHg 97%
    22:00 +3°C° 0 mm 2 mps 752 mmHg 97%
    23:00 +2°C° 0 mm 2 mps 752 mmHg 96%
    Show more